Temperatur und Luftfeuchte

Temperatur und Luftfeuchte

Die letzten 100 Messwerte

Nummer Datum und Zeit Sensor ID Temperatur in Celsius gef├╝hlte Temperatur Luftfeuchte in %
20549 2020-01-24 18:50:51 Terrasse 0.70 -0.57 99.90
20548 2020-01-24 18:19:57 Terrasse 0.60 -0.68 99.90
20547 2020-01-24 17:49:00 Terrasse 0.70 -0.57 99.90
20546 2020-01-24 17:18:05 Terrasse 0.70 -0.57 99.90
20545 2020-01-24 16:47:10 Terrasse 0.80 -0.46 99.90
20544 2020-01-24 16:16:14 Terrasse 0.90 -0.35 99.90
20543 2020-01-24 15:45:18 Terrasse 1.00 -0.24 99.90
20542 2020-01-24 15:14:23 Terrasse 1.10 -0.13 99.90
20541 2020-01-24 14:43:29 Terrasse 1.20 -0.02 99.90
20540 2020-01-24 14:12:33 Terrasse 1.20 -0.02 99.90
20539 2020-01-24 13:41:38 Terrasse 1.10 -0.13 99.90
20538 2020-01-24 13:10:40 Terrasse 1.00 -0.24 99.90
20537 2020-01-24 12:39:42 Terrasse 0.70 -0.57 99.90
20536 2020-01-24 12:08:46 Terrasse 0.60 -0.68 99.90
20535 2020-01-24 11:37:49 Terrasse 0.60 -0.68 99.90
20534 2020-01-24 11:06:52 Terrasse 0.50 -0.79 99.90
20533 2020-01-24 10:36:00 Terrasse 0.40 -0.90 99.90
20532 2020-01-24 10:05:04 Terrasse 0.40 -0.90 99.90
20531 2020-01-24 09:34:08 Terrasse 0.40 -0.90 99.90
20530 2020-01-24 09:03:13 Terrasse 0.30 -1.01 99.90
20529 2020-01-24 08:32:18 Terrasse 0.30 -1.01 99.90
20528 2020-01-24 08:01:22 Terrasse 0.30 -1.01 99.90
20527 2020-01-24 07:30:26 Terrasse 0.30 -1.01 99.90
20526 2020-01-24 06:59:29 Terrasse 0.40 -0.90 99.90
20525 2020-01-24 06:28:34 Terrasse 0.40 -0.90 99.90
20524 2020-01-24 05:57:37 Terrasse 0.40 -0.90 99.90
20523 2020-01-24 05:26:43 Terrasse 0.40 -0.90 99.90
20522 2020-01-24 04:55:47 Terrasse 0.40 -0.90 99.90
20521 2020-01-24 04:24:50 Terrasse 0.40 -0.90 99.90
20520 2020-01-24 03:53:55 Terrasse 0.50 -0.79 99.90
20519 2020-01-24 03:22:59 Terrasse 0.70 -0.57 99.90
20518 2020-01-24 02:52:04 Terrasse 0.90 -0.35 99.90
20517 2020-01-24 02:21:09 Terrasse 1.00 -0.24 99.90
20516 2020-01-24 01:50:14 Terrasse 1.20 -0.02 99.90
20515 2020-01-24 01:19:19 Terrasse 1.30 0.09 99.90
20514 2020-01-24 00:48:24 Terrasse 1.30 0.09 99.90
20513 2020-01-24 00:17:27 Terrasse 1.40 0.20 99.90
20512 2020-01-23 23:46:32 Terrasse 1.40 0.20 99.90
20511 2020-01-23 23:15:36 Terrasse 1.50 0.31 99.90
20510 2020-01-23 22:44:44 Terrasse 1.70 0.53 99.90
20509 2020-01-23 22:13:50 Terrasse 1.70 0.53 99.90
20508 2020-01-23 21:42:56 Terrasse 1.90 0.75 99.90
20507 2020-01-23 21:12:01 Terrasse 2.10 0.97 99.90
20506 2020-01-23 20:41:05 Terrasse 2.20 1.08 99.90
20505 2020-01-23 20:10:11 Terrasse 2.30 1.19 99.90
20504 2020-01-23 19:39:16 Terrasse 2.20 1.08 99.90
20503 2020-01-23 19:08:20 Terrasse 2.20 1.08 99.90
20502 2020-01-23 18:37:26 Terrasse 2.50 1.41 99.90
20501 2020-01-23 18:06:34 Terrasse 2.90 1.85 99.90
20500 2020-01-23 17:35:42 Terrasse 3.60 2.62 99.90
20499 2020-01-23 17:05:01 Terrasse 4.70 3.83 99.90
20498 2020-01-23 16:34:17 Terrasse 6.50 5.04 70.10
20497 2020-01-23 16:04:09 Terrasse 13.10 11.92 55.60
20496 2020-01-23 15:32:46 Terrasse 8.70 7.44 69.60
20495 2020-01-23 15:02:21 Terrasse 9.70 8.46 66.60
20494 2020-01-23 14:30:48 Terrasse 10.60 9.51 68.90
20493 2020-01-23 13:59:16 Terrasse 4.30 3.39 99.90
20492 2020-01-23 13:28:18 Terrasse 3.60 2.62 99.90
20491 2020-01-23 12:57:18 Terrasse 3.00 1.96 99.90
20490 2020-01-23 12:26:20 Terrasse 2.50 1.41 99.90
20489 2020-01-23 11:55:22 Terrasse 2.30 1.19 99.90
20488 2020-01-23 11:24:22 Terrasse 2.20 1.08 99.90
20487 2020-01-23 10:53:24 Terrasse 2.00 0.86 99.90
20486 2020-01-23 10:22:26 Terrasse 1.90 0.75 99.90
20485 2020-01-23 09:51:30 Terrasse 1.80 0.64 99.90
20484 2020-01-23 09:20:34 Terrasse 1.70 0.53 99.90
20483 2020-01-23 08:49:36 Terrasse 1.60 0.42 99.90
20482 2020-01-23 08:18:38 Terrasse 1.60 0.42 99.90
20481 2020-01-23 07:47:43 Terrasse 1.60 0.42 99.90
20480 2020-01-23 07:16:45 Terrasse 1.60 0.42 99.90
20479 2020-01-23 06:45:50 Terrasse 1.60 0.42 99.90
20478 2020-01-23 06:14:54 Terrasse 1.50 0.31 99.90
20477 2020-01-23 05:43:58 Terrasse 1.50 0.31 99.90
20476 2020-01-23 05:13:00 Terrasse 1.50 0.31 99.90
20475 2020-01-23 04:42:04 Terrasse 1.50 0.31 99.90
20474 2020-01-23 04:11:08 Terrasse 1.40 0.20 99.90
20473 2020-01-23 03:40:14 Terrasse 1.40 0.20 99.90
20472 2020-01-23 03:09:17 Terrasse 1.20 -0.02 99.90
20471 2020-01-23 02:38:22 Terrasse 1.30 0.09 99.90
20470 2020-01-23 02:07:29 Terrasse 1.60 0.42 99.90
20469 2020-01-23 01:36:33 Terrasse 1.60 0.42 99.90
20468 2020-01-23 01:05:35 Terrasse 1.60 0.42 99.90
20467 2020-01-23 00:34:40 Terrasse 1.60 0.42 99.90
20466 2020-01-23 00:03:42 Terrasse 1.40 0.20 99.90
20465 2020-01-22 23:32:44 Terrasse 1.10 -0.13 99.90
20464 2020-01-22 23:01:48 Terrasse 1.20 -0.02 99.90
20463 2020-01-22 22:30:50 Terrasse 0.80 -0.46 99.90
20462 2020-01-22 21:59:53 Terrasse 0.60 -0.68 99.90
20461 2020-01-22 21:28:58 Terrasse 0.60 -0.68 99.90
20460 2020-01-22 20:58:01 Terrasse 0.30 -1.01 99.90
20459 2020-01-22 20:27:03 Terrasse 0.20 -1.12 99.90
20458 2020-01-22 19:56:07 Terrasse 0.20 -1.12 99.90
20457 2020-01-22 19:25:12 Terrasse 0.30 -1.01 99.90
20456 2020-01-22 18:54:16 Terrasse 0.30 -1.01 99.90
20455 2020-01-22 18:23:22 Terrasse 0.60 -0.68 99.90
20454 2020-01-22 17:52:27 Terrasse 0.70 -0.57 99.90
20453 2020-01-22 17:21:31 Terrasse 0.50 -0.79 99.90
20452 2020-01-22 16:50:36 Terrasse 0.70 -0.57 99.90
20451 2020-01-22 16:19:41 Terrasse 0.90 -0.35 99.90
20450 2020-01-22 15:48:47 Terrasse 1.30 0.09 99.90